User: anonymous   Login
Location: Unspecified
(0.0000°N, 0.0000°E)
Time: 03:33:27
(UTC+00:00)
Language:

Kitsat-3 - Orbit

View from above orbital plane
View from above orbital plane
View from above satellite
View from above satellite

Ground track
Ground track

The orbit data is extracted from the following two-line orbital elements,

1 25756U 99029A   17173.85271509 -.00000014 +00000-0 +78464-5 0  9990
2 25756 098.4117 093.4941 0012891 219.8501 140.1749 14.53669985958312
Epoch (UTC): 22 June 2017 20:27:54
Eccentricity: 0.0012891
inclination: 98.4117°
perigee height: 704 km
apogee height: 723 km
right ascension of ascending node: 93.4941°
argument of perigee: 219.8501°
revolutions per day: 14.53669985
mean anomaly at epoch: 140.1749°
orbit number at epoch: 95831

The dashed part of the orbit path shows where the satellite is in the earth's shadow,  

DLR